[[{"header":{"parameterUnit":"m.s-1","parameterCategory":1,"la1":30.2991,"la2":30.254,"lo1":-89.0895,"lo2":-89.0444,"dy":0.0017,"dx":0.0017,"nx":28,"ny":28,"refTime":"2025-07-30T03:00:00:Z","depth":0,"parameterNumber":2,"parameterNumberName":"U-component_of_WINDS"},"data":[0,0,0,0,0,0,0,0,0,0,0,0,0,0,0,0,0,0,0,0,0,0,0,0,0,0,0,0,0,0,0,0,0,0,0,0,0,0,0,0,0,0,0,0,0,0,0,0,0,0,0,0,0,0,0,0,0,0,2.0741,2.0741,0,2.0792,2.0793,2.0793,2.0747,2.0745,2.0744,2.0742,2.0796,2.0799,2.0802,0,0,0,0,0,0,0,0,0,0,0,0,0,2.0603,2.0605,2.0741,2.0741,2.0742,2.0792,2.0793,2.0793,2.0748,2.0745,2.0743,2.0741,2.0795,2.0799,2.0803,0,0,0,0,0,0,0,0,0,0,0,0,0,2.0659,2.0606,2.0741,2.0725,2.0724,2.0792,2.0793,2.0793,2.0748,2.0745,2.0743,2.074,2.0794,2.0799,2.0803,2.0889,0,0,2.0818,2.082,0,0,0,0,0,0,0,0,2.0656,2.0664,2.0727,2.0726,2.0725,2.076,2.0764,2.0826,2.0749,2.0739,2.0742,2.0739,2.0787,2.0792,2.0808,2.0892,2.0894,2.0818,2.0821,2.0823,2.0825,0,0,0,0,0,0,0,2.0652,2.0662,2.0761,2.0728,2.0727,2.0715,2.072,2.0775,2.0778,2.074,2.0737,2.0743,2.0786,2.0803,2.0809,2.0895,2.0818,2.0822,2.0825,2.0827,2.1049,2.1051,0,0,0,0,0,0,2.065,2.0659,2.0759,2.0762,2.0683,2.072,2.0726,2.0752,2.0777,2.0778,2.0746,2.0741,2.0796,2.0803,2.081,2.0911,2.0823,2.0828,2.0831,2.1046,2.1049,2.1053,0,0,0,0,0,0,2.0647,2.0659,2.0757,2.071,2.0721,2.0726,2.0755,2.0755,2.0772,2.0782,2.0782,2.0763,2.0794,2.0804,2.0869,2.0912,2.083,2.0834,2.1042,2.1047,2.1051,2.1113,0,0,0,0,0,0,2.0643,2.0659,2.0692,2.0711,2.0724,2.0816,2.0758,2.0758,2.078,2.0774,2.0798,2.0799,2.0793,2.0862,2.0874,2.0917,2.0838,2.1038,2.1044,2.1049,2.1107,2.1119,2.1129,0,0,0,0,0,2.0639,2.0708,2.0694,2.0706,2.0765,2.0818,2.0826,2.0816,2.0784,2.0817,2.0822,2.0799,2.0905,2.0869,2.0882,2.0927,2.1036,2.1042,2.1049,2.1102,2.1117,2.1129,0,0,0,0,0,0,2.0695,2.071,2.0694,2.0772,2.0794,2.081,2.0852,2.0833,2.0865,2.0858,2.0846,2.0852,2.092,2.093,2.089,2.101,2.0965,2.0975,2.1001,2.1015,2.1026,2.1022,2.0842,0,0,0,0,0,2.0716,2.0758,2.0769,2.0837,2.0848,2.0848,2.0871,2.0861,2.0884,2.0893,2.0904,2.0927,2.0965,2.0991,2.1027,2.1108,2.1112,2.1146,2.1157,2.1166,2.1174,2.1216,2.123,2.1075,2.1075,2.1075,0,0,2.0761,2.0775,2.0802,2.0848,2.0864,2.0906,2.0856,2.0904,2.0935,2.09,2.0962,2.0971,2.0995,2.1068,2.1101,2.1079,2.1218,2.1174,2.1181,2.1185,2.1224,2.1239,2.1252,2.1079,2.1078,2.1078,0,0,2.0865,2.088,2.0936,2.0952,2.0976,2.0975,2.0989,2.1007,2.1011,2.1073,2.1047,2.1083,2.1151,2.1168,2.1186,2.1293,2.1271,2.1305,2.1363,2.1404,2.1416,2.1427,2.1463,2.1477,2.1313,2.1313,2.1314,0,2.0918,2.0981,2.0968,2.1017,2.1037,2.1006,2.1063,2.1079,2.1114,2.1129,2.1103,2.1184,2.1199,2.1275,2.13,2.1316,2.133,2.1302,2.1415,2.1426,2.1436,2.1471,2.1485,2.1317,2.1317,2.1316,2.1316,0,2.1044,2.1088,2.1131,2.1163,2.1188,2.1241,2.1236,2.1263,2.1251,2.1252,2.1314,2.133,2.1367,2.1384,2.1374,2.1458,2.1443,2.1417,2.1371,2.1455,2.1487,2.15,2.1323,2.1321,2.132,2.1319,0,0,2.1186,2.1209,2.1225,2.1238,2.1261,2.1294,2.1345,2.138,2.1403,2.1427,2.1469,2.1524,2.1499,2.1519,2.151,2.1546,2.1627,2.1514,2.1514,2.1534,2.1719,2.1738,2.1754,2.1613,2.1615,2.1617,2.1716,0,2.129,2.1377,2.1365,2.1449,2.1488,2.1457,2.1501,2.1519,2.1521,2.1554,2.1557,2.1596,2.156,2.1572,2.1606,2.161,2.1664,2.1603,2.165,2.1652,2.1645,2.1771,2.1793,2.1886,2.1729,2.1731,2.1733,0,2.1422,2.1449,2.1536,2.155,2.1566,2.1606,2.1636,2.1668,2.1687,2.1686,2.1707,2.1691,2.174,2.1693,2.1761,2.1719,2.1738,2.1743,2.1746,2.175,2.1698,2.1778,2.1916,2.1929,2.1753,2.1751,2.175,0,2.1516,2.1574,2.1633,2.1645,2.1663,2.1691,2.17,2.1717,2.1738,2.1764,2.1777,2.181,2.1828,2.1853,2.1845,2.1812,2.1913,2.1866,2.1913,2.1914,2.1937,2.1935,2.2078,2.195,2.1949,2.1949,2.1949,0,2.1632,2.1686,2.1675,2.1711,2.177,2.1756,2.1814,2.1819,2.1834,2.187,2.1846,2.188,2.1868,2.1901,2.1896,2.1951,2.196,2.196,2.1958,2.1962,2.1962,2.1974,2.1967,2.1953,2.1952,2.1951,2.1951,0,2.1747,2.1742,2.1803,2.1814,2.1818,2.1861,2.187,2.1904,2.1903,2.1949,2.1959,2.1957,2.1995,2.199,2.2033,2.2028,2.2097,2.2088,2.2091,2.2088,2.2135,2.213,2.2291,2.231,2.217,2.2171,2.2172,0,2.1821,2.1862,2.1876,2.1898,2.1908,2.1944,2.1965,2.1952,2.1974,2.1998,2.2028,2.2063,2.2091,2.2153,2.2156,2.2188,2.2178,2.2232,2.2183,2.2185,2.2178,2.2175,2.2178,2.2242,2.2243,2.2245,2.2246,0,2.1954,2.1948,2.1979,2.2008,2.2033,2.2055,2.2075,2.2095,2.2083,2.2109,2.2147,2.2168,2.221,2.2245,2.2274,2.2283,2.2263,2.2261,2.2273,2.2278,2.2278,2.2277,2.2116,2.2258,2.2256,2.2256,2.2255,2.2254,2.205,2.2084,2.2098,2.2132,2.2145,2.2164,2.2195,2.2197,2.2228,2.226,2.2251,2.2293,2.2309,2.2346,2.2357,2.239,2.237,2.2389,2.2393,2.2398,2.2403,2.2272,2.2395,2.2395,2.2395,2.2394,2.2394,0,2.218,2.2187,2.2218,2.2246,2.2272,2.2249,2.2269,2.2293,2.233,2.2346,2.2373,2.2415,2.2448,2.2453,2.2484,2.2509,2.25,2.2517,2.2515,2.2517,2.2419,2.2405,2.2524,2.2524,2.2524,2.2524,2.2524,2.2524,2.2251,2.2306,2.2301,2.2362,2.2368,2.2409,2.2422,2.2439,2.2451,2.2499,2.2525,2.2527,2.2539,2.257,2.2599,2.2599,2.2611,2.2632,2.2629,2.2537,2.2524,2.2512,2.2498,2.2635,2.2635,2.2724,2.2725,2.2725]},{"header":{"parameterUnit":"m.s-1","parameterCategory":1,"la1":30.2991,"la2":30.254,"lo1":-89.0895,"lo2":-89.0444,"dy":0.0017,"dx":0.0017,"nx":28,"ny":28,"refTime":"2025-07-30T03:00:00:Z","depth":0,"parameterNumber":3,"parameterNumberName":"V-component_of_WINDS"},"data":[0,0,0,0,0,0,0,0,0,0,0,0,0,0,0,0,0,0,0,0,0,0,0,0,0,0,0,0,0,0,0,0,0,0,0,0,0,0,0,0,0,0,0,0,0,0,0,0,0,0,0,0,0,0,0,0,0,0,3.4987,3.4989,0,3.5154,3.5156,3.5158,3.5172,3.517,3.5168,3.5167,3.5332,3.5338,3.5344,0,0,0,0,0,0,0,0,0,0,0,0,0,3.4673,3.4679,3.4987,3.4989,3.4991,3.5154,3.5156,3.5159,3.5172,3.517,3.5168,3.5166,3.533,3.5337,3.5344,0,0,0,0,0,0,0,0,0,0,0,0,0,3.4822,3.4681,3.4987,3.5018,3.5022,3.5154,3.5156,3.5159,3.5173,3.517,3.5167,3.5165,3.5327,3.5336,3.5345,3.5455,0,0,3.5373,3.5377,0,0,0,0,0,0,0,0,3.4813,3.4833,3.5011,3.5016,3.5021,3.514,3.5106,3.5258,3.5173,3.5115,3.5167,3.5163,3.527,3.5283,3.532,3.5463,3.547,3.5374,3.5379,3.5383,3.5386,0,0,0,0,0,0,0,3.4803,3.4826,3.5053,3.5014,3.502,3.5021,3.5039,3.5135,3.5205,3.512,3.5122,3.5142,3.5272,3.5312,3.5324,3.5472,3.5374,3.5382,3.5387,3.5391,3.5713,3.5716,0,0,0,0,0,0,3.4788,3.4817,3.5048,3.5058,3.4909,3.5029,3.505,3.5104,3.5204,3.5217,3.5144,3.5142,3.5297,3.5314,3.533,3.5466,3.5383,3.5392,3.5397,3.571,3.5713,3.5717,0,0,0,0,0,0,3.4781,3.4808,3.5041,3.4938,3.4968,3.5038,3.5099,3.5109,3.5149,3.5222,3.5234,3.5172,3.5296,3.5317,3.5424,3.5471,3.5396,3.5404,3.5706,3.5711,3.5715,3.5737,0,0,0,0,0,0,3.4772,3.4806,3.485,3.4939,3.4974,3.5134,3.5102,3.5114,3.5165,3.5164,3.5252,3.5264,3.5295,3.5411,3.5433,3.5483,3.5411,3.5702,3.5708,3.5714,3.5732,3.5741,3.5749,0,0,0,0,0,3.4761,3.4848,3.4852,3.4879,3.503,3.5137,3.5156,3.5193,3.5169,3.5213,3.526,3.5261,3.5463,3.5422,3.5447,3.55,3.5699,3.5707,3.5713,3.5728,3.574,3.5749,0,0,0,0,0,0,3.4759,3.486,3.4866,3.4985,3.5052,3.5139,3.5195,3.5204,3.5278,3.5274,3.5314,3.5333,3.5439,3.548,3.5432,3.5611,3.5578,3.5591,3.5581,3.5592,3.5601,3.5588,3.5419,0,0,0,0,0,3.4774,3.4854,3.4936,3.5033,3.5067,3.5126,3.5173,3.5196,3.5267,3.5295,3.535,3.5417,3.5495,3.5546,3.5622,3.5738,3.5757,3.5787,3.5795,3.5802,3.5812,3.5876,3.589,3.574,3.574,3.5739,0,0,3.4802,3.4867,3.4915,3.5035,3.509,3.517,3.5149,3.5235,3.5295,3.5307,3.5412,3.5454,3.5532,3.5644,3.5696,3.5681,3.5858,3.5811,3.5816,3.5822,3.5885,3.5899,3.5911,3.5744,3.5744,3.5743,0,0,3.4896,3.4954,3.5041,3.5097,3.5182,3.522,3.5241,3.5327,3.5356,3.5462,3.5473,3.5543,3.5678,3.5733,3.5778,3.5893,3.5896,3.5916,3.5962,3.6023,3.6035,3.6046,3.6086,3.6101,3.5926,3.5926,3.5926,0,3.4921,3.5045,3.5084,3.5171,3.5222,3.5239,3.5327,3.5378,3.5482,3.5517,3.55,3.5669,3.5722,3.5847,3.5875,3.5911,3.5935,3.5906,3.6031,3.6042,3.6052,3.6091,3.6107,3.5928,3.5928,3.5928,3.5927,0,3.5071,3.5156,3.5216,3.5319,3.5377,3.5463,3.5514,3.5568,3.5585,3.5625,3.5732,3.5797,3.5886,3.5917,3.5934,3.6045,3.6033,3.6023,3.599,3.6068,3.6105,3.6121,3.5931,3.593,3.5929,3.5929,0,0,3.5169,3.5293,3.5314,3.5361,3.5455,3.5521,3.5607,3.5697,3.5742,3.5813,3.5885,3.5999,3.599,3.6042,3.6065,3.6119,3.6205,3.6102,3.6105,3.6119,3.633,3.6337,3.6354,3.6208,3.6211,3.6214,3.6324,0,3.5273,3.543,3.5468,3.5601,3.568,3.5697,3.5772,3.5837,3.5876,3.5947,3.5989,3.6069,3.6052,3.6083,3.6137,3.6183,3.6248,3.6176,3.6275,3.6278,3.6255,3.6374,3.6382,3.6482,3.6339,3.6341,3.6343,0,3.5416,3.5493,3.5634,3.5719,3.5753,3.582,3.5905,3.5973,3.6047,3.6071,3.6129,3.6147,3.6235,3.6199,3.6321,3.6271,3.6313,3.6342,3.6347,3.6357,3.6315,3.6387,3.6515,3.653,3.6366,3.6364,3.6363,0,3.5473,3.5611,3.5714,3.5753,3.5854,3.5901,3.5944,3.6016,3.6067,3.614,3.6174,3.6256,3.6301,3.6363,3.6402,3.6372,3.6521,3.6487,3.6542,3.6541,3.6573,3.657,3.6709,3.66,3.66,3.66,3.6599,0,3.5585,3.5671,3.5741,3.5804,3.59,3.5942,3.6035,3.6079,3.6142,3.6212,3.6231,3.6297,3.6344,3.6415,3.6446,3.6542,3.6562,3.6583,3.659,3.6582,3.6579,3.661,3.6603,3.6604,3.6603,3.6602,3.6601,0,3.5665,3.5715,3.5828,3.5915,3.5939,3.6006,3.6079,3.614,3.618,3.6269,3.6292,3.6353,3.6438,3.6483,3.6589,3.661,3.6717,3.672,3.6693,3.6696,3.6748,3.6743,3.6912,3.6936,3.6811,3.6812,3.6813,0,3.5733,3.58,3.5895,3.5945,3.599,3.6069,3.6123,3.6166,3.622,3.6309,3.6359,3.6445,3.6517,3.6651,3.6704,3.6785,3.679,3.6844,3.6802,3.6791,3.679,3.6786,3.6792,3.6851,3.6852,3.6853,3.6854,0,3.5849,3.5871,3.5948,3.6034,3.6098,3.6167,3.6235,3.6274,3.6328,3.6387,3.6476,3.6532,3.664,3.6726,3.6811,3.6853,3.6862,3.6867,3.6883,3.6875,3.6857,3.6867,3.6713,3.6862,3.6861,3.6861,3.686,3.686,3.5925,3.5985,3.6062,3.6147,3.6203,3.6267,3.6328,3.6377,3.6452,3.6545,3.6565,3.6658,3.6729,3.6845,3.689,3.6962,3.6951,3.6976,3.6982,3.6987,3.699,3.6846,3.6978,3.6978,3.6978,3.6977,3.6977,0,3.6042,3.6092,3.617,3.6266,3.6333,3.6338,3.6413,3.6468,3.655,3.6617,3.6687,3.6788,3.6871,3.6931,3.7015,3.7061,3.7067,3.7082,3.7079,3.7088,3.6995,3.6972,3.7076,3.7075,3.7075,3.7075,3.7075,3.7075,3.611,3.6213,3.6243,3.6373,3.6422,3.6515,3.6558,3.6616,3.6669,3.6782,3.6852,3.6891,3.6955,3.7044,3.7119,3.7135,3.7164,3.7178,3.7194,3.7105,3.7095,3.7085,3.7063,3.7185,3.7185,3.7281,3.7282,3.7283]}]]